Location: Sternwarte_Laufen
(47.9344°N, 12.9346°E)
Time: 07:29:39
(UTC+02:00)

Transit 2A Rocket - Visible Passes

Search period start: 08 June 2026 00:00
Search period end: 18 June 2026 00:00
Orbit: 589 x 894 km, 66.7° (Epoch: 7 June)

Date Brightness Start Highest point End Pass type
(mag) Time Alt. Az. Time Alt. Az. Time Alt. Az.
8 Jun 6.5 00:17:59 10° WNW 00:20:37 16° WSW 00:21:43 15° SW visible
8 Jun 5.5 21:48:49 10° NNW 21:52:59 37° NE 21:56:59 10° ESE visible
8 Jun 5.8 23:31:22 10° NW 23:35:11 30° WSW 23:37:07 21° SSW visible
9 Jun 4.8 22:45:18 10° NW 22:49:38 57° WSW 22:52:34 19° SSE visible
10 Jun 4.6 21:59:30 10° NNW 22:03:56 77° NE 22:08:03 11° SE visible
10 Jun 6.8 23:43:30 10° WNW 23:45:33 13° WSW 23:47:33 10° SW visible
11 Jun 6.1 22:56:35 10° WNW 23:00:09 25° WSW 23:03:15 12° SSW visible
12 Jun 5.2 22:10:25 10° NW 22:14:37 47° WSW 22:18:43 10° SSE visible
13 Jun 7.1 23:09:26 10° W 23:10:28 11° WSW 23:11:28 10° WSW visible
14 Jun 6.5 22:21:50 10° WNW 22:25:05 21° WSW 22:28:18 10° SSW visible
17 Jun 6.9 21:47:08 10° WNW 21:50:01 18° WSW 21:52:52 10° SSW visible
